ESOWESNK

Guest
Details From ESOW - Vasteras
To ESNK - Kramfors Solleftea
Flight Number -
Tags generated
Created
Modified
Stats Distance 220 nm / 407 km
Max Altitude 28,500 ft / 8,687 m
Waypoints 4
Social Downloads 0
Likes 0
Share VATSIM

Download

Looking for another format? Having issues loading an existing format? Contact us
Advertisement - Login to hide

Notes

Basic altitude profile: - Ascent Rate: 2500ft/min - Ascent Speed: 250kts - Cruise Altitude: 35000ft - Cruise Speed: 420kts - Descent Rate: 1500ft/min - Descent Speed: 250kts Options: - Use NATs: yes - Use PACOTS: yes - Use low airways: yes - Use high airways: yes

Route

ESOW DEGAL UT314 OKLEV ESNK

ID Type Via Altitude Latitude Longitude Leg Dist Tot Dist Heading (true) Name
O ESOW APT - 0 ft / 0 m 59.58983˚ 16.63386˚ - 0 nm - Vasteras
DEGAL FIX - 25,500 ft / 7,772 m 60.63883˚ 17.95667˚ 74 nm 74 nm 32° / 33° -
OKLEV FIX UT314 (AWY-HI) 28,500 ft / 8,687 m 61.97156˚ 17.60500˚ 80 nm 155 nm 353° / 353° -
O ESNK APT - 0 ft / 0 m 63.04860˚ 17.76885˚ 64 nm 219 nm 4° / 4° Kramfors Solleftea

Altitude Profile

Advertisement - Login to hide

Weather


0- 5 10 15 20 25 30 35+ Temperature / ° C

Clouds and Precipitation
Forecast for 2018-05-26 18:00 UTC. Updated 3 hours ago

Ground ~20,000 ft ~40,000 ft Winds

ESOW

Details ICAO ESOW (VST)
Name Vasteras
Region Sweden
Timezone Europe/Stockholm (UTC+2.0)
Stats Elevation 21 ft / 6 m (AMSL)
Location 59.589829° 16.633862°
Runways 1
Magnetic Variation 5.652° E

METAR

ESOW 261950Z AUTO 03008KT 9999 NCD 16/04 Q1028

Decode

TAF

Not found

Departure Runways

ID Width Length Bearing (true) Bearing (mag) Surface Threshold Offset Overrun Length
01 151 ft / 46 m 8,454 ft / 2,577 m 11.62° 5.97° Asphalt 1,309 ft / 399 m 0 ft / 0 m
19 151 ft / 46 m 8,454 ft / 2,577 m 191.63° 185.98° Asphalt 0 ft / 0 m 0 ft / 0 m

ESNK

Details ICAO ESNK (KRF)
Name Kramfors Solleftea
Region Sweden
Timezone Europe/Stockholm (UTC+2.0)
Stats Elevation 34 ft / 10 m (AMSL)
Location 63.048597° 17.768854°
Runways 1
Magnetic Variation 6.734° E

METAR

ESNK 261950Z AUTO 33006KT 9999 NCD 14/M00 Q1030

Decode

TAF

Not found

Destination Runways

ID Width Length Bearing (true) Bearing (mag) Surface Threshold Offset Overrun Length
17 148 ft / 45 m 6,551 ft / 1,997 m 171.54° 164.81° Asphalt 0 ft / 0 m 0 ft / 0 m
35 148 ft / 45 m 6,551 ft / 1,997 m 351.55° 344.82° Asphalt 0 ft / 0 m 0 ft / 0 m

Approach Navaids

Runway Type Ident Frequency Range Bearing (true) Bearing (mag) Slope Elevation
17 Localiser FK 109.30 MHz 18 nm / 33 km 171.56° 164.83° - 34 ft / 10 m (AMSL)
35 Localiser NK 109.70 MHz 18 nm / 33 km 351.53° 344.80° - 34 ft / 10 m (AMSL)
35 Glidescope NK 109.70 MHz 10 nm / 19 km 351.54° 344.81° 3.25° 34 ft / 10 m (AMSL)